Skip Page Navigation
NASA JPL Caltech
NASA Logo - Jet Propulsion Laboratory + View the NASA Portal
+ Center for Near-Earth Object Studies
JPL Home Earth Solar System Stars & Galaxies Technology
JPL Solar System Dynamics
BODIES ORBITS EPHEMERIDES TOOLS PHYSICAL DATA DISCOVERY FAQ SITE MAP
IMPORTANT: The SSD Announcement email list is now available. Major changes are coming in the near future, including possible hostname and/or URL changes. To be notified of such changes, subscribe to this email list.

Please visit this page for more details.


JPL Small-Body Database Browser
Search: [ help ]  
17649 Brunorossi (1996 UP1)
Classification: Main-belt Asteroid          SPK-ID: 2017649
Ephemeris | Orbit Diagram | Orbital Elements | Mission Design | Physical Parameters | Discovery Circumstances ]

[ show orbit diagram ]
Orbital Elements at Epoch 2458600.5 (2019-Apr-27.0) TDB
Reference: JPL 24 (heliocentric ecliptic J2000)
 Element Value Uncertainty (1-sigma)   Units 
e .1783475356978506 4.1726e-08  
a 2.611925261276089 1.3977e-08 au
q 2.146094827500534 1.0936e-07 au
i 15.50482771676702 8.0148e-06 deg
node 215.288742121304 1.7088e-05 deg
peri 68.84824349717671 2.8895e-05 deg
M 199.4492404882811 2.2862e-05 deg
tp 2459288.121439289273
(2021-Mar-14.62143929)
9.9689e-05 TDB
period 1541.840841469639
4.22
1.2376e-05
3.388e-08
d
yr
n .2334871345455204 1.8742e-09 deg/d
Q 3.077755695051644 1.647e-08 au
  Orbit Determination Parameters
   # obs. used (total)      1109  
   data-arc span      10105 days (27.67 yr)  
   first obs. used      1991-06-14  
   last obs. used      2019-02-12  
   planetary ephem.      DE431  
   SB-pert. ephem.      SB431-N16  
   condition code      0  
   norm. resid. RMS      .50506  
   source      ORB  
   producer      Otto Matic  
   solution date      2019-Jul-12 22:22:28  

Additional Information
 Earth MOID = 1.18426 au 
 Jupiter MOID = 2.1539 au 
 T_jup = 3.336 
[ show covariance matrix ]

Ephemeris | Orbit Diagram | Orbital Elements | Mission Design | Physical Parameters | Discovery Circumstances ]

Physical Parameter Table
Parameter Symbol Value Units Sigma Reference Notes
absolute magnitude H 14.3   n/a MPO384905  
diameter diameter 4.904 km 0.318 urn:nasa:pds:neowise_diameters_albedos::2.0[mainbelt] (http://adsabs.harvard.edu/abs/2011ApJ...741...68M)  
geometric albedo albedo 0.168   0.062 urn:nasa:pds:neowise_diameters_albedos::2.0[mainbelt] (http://adsabs.harvard.edu/abs/2011ApJ...741...68M)  

17649 Brunorossi           Discovered 1996 Oct. 17 by V. S. Casulli at the Colleverde.
Bruno Rossi (1905-1993) was a physicist who worked on the Manhattan Project and was a pioneer of X-ray astronomy.
NOTE: some special characters may not display properly (any characters within {} are an attempt to place the proper accent above a character)
Reference: 20120406/MPCPages.arcLast Updated: 2012-04-09

Alternate Designations
 1996 UP1 = 1991 LX 
Ephemeris | Orbit Diagram | Orbital Elements | Mission Design | Physical Parameters | Discovery Circumstances ]
ABOUT SSD CREDITS/AWARDS PRIVACY/COPYRIGHT GLOSSARY LINKS
FirstGov 2020-Jan-26 03:35 UT
(server date/time)  
NASA Home Page
Site Manager:   Ryan S. Park
Webmaster  Alan B. Chamberlin